Location: Newark
(34.6283°N, 36.0776°E)
Time: 13:41:18
(UTC+00:00)

S-56A Canister/Altair - Pass Details

Date: 19 October 2019
Orbit: 634 x 2498 km, 38.9° (Epoch: 17 November)

Event Time Altitude Azimuth Distance (km) Brightness Sun altitude
Rises 02:42:49 0° 276° (W) 3,853 - -13.3°
Reaches altitude 10° 02:45:09 10° 279° (W) 3,095 - -12.9°
Exits shadow 02:46:12 16° 281° (WNW) 2,773 9.7 -12.7°
Maximum altitude 02:53:01 69° 3° (N) 1,663 9.2 -11.3°
Drops below altitude 10° 03:05:07 10° 86° (E) 4,607 13.1 -8.8°
Sets 03:09:22 0° 89° (E) 5,828 14.3 -7.9°
